[[{"header":{"parameterUnit":"m.s-1","parameterCategory":1,"la1":30.2991,"la2":30.254,"lo1":-89.0895,"lo2":-89.0444,"dy":0.0017,"dx":0.0017,"nx":28,"ny":28,"refTime":"2023-09-02T03:00:00:Z","depth":0,"parameterNumber":2,"parameterNumberName":"U-component_of_WINDS"},"data":[0,0,0,0,0,0,0,0,0,0,0,0,0,0,0,0,0,0,0,0,0,0,0,0,0,0,0,0,0,0,0,0,0,0,0,0,0,0,0,0,0,0,0,0,0,0,0,0,0,0,0,0,0,0,0,0,0,0,-2.7529,-2.7529,0,-2.7573,-2.7574,-2.7574,-2.751,-2.7508,-2.7506,-2.7504,-2.7549,-2.7553,-2.7556,0,0,0,0,0,0,0,0,0,0,0,0,0,-2.739,-2.7393,-2.7529,-2.7529,-2.753,-2.7573,-2.7574,-2.7574,-2.7511,-2.7508,-2.7505,-2.7503,-2.7548,-2.7552,-2.7556,0,0,0,0,0,0,0,0,0,0,0,0,0,-2.7444,-2.7394,-2.7529,-2.7503,-2.7502,-2.7573,-2.7574,-2.7574,-2.7511,-2.7508,-2.7504,-2.7501,-2.7547,-2.7552,-2.7557,-2.7655,0,0,-2.7572,-2.7574,0,0,0,0,0,0,0,0,-2.7441,-2.7449,-2.7507,-2.7505,-2.7503,-2.7533,-2.7541,-2.7601,-2.7512,-2.7508,-2.7504,-2.75,-2.7547,-2.7551,-2.7567,-2.7657,-2.7659,-2.7572,-2.7575,-2.7578,-2.7579,0,0,0,0,0,0,0,-2.7437,-2.7447,-2.7546,-2.7508,-2.7506,-2.749,-2.7494,-2.7552,-2.7546,-2.7508,-2.7503,-2.7509,-2.7545,-2.7562,-2.7568,-2.766,-2.7572,-2.7577,-2.758,-2.7582,-2.7833,-2.7836,0,0,0,0,0,0,-2.7436,-2.7444,-2.7545,-2.7548,-2.7463,-2.7495,-2.75,-2.7527,-2.7545,-2.7544,-2.7512,-2.7506,-2.7556,-2.7562,-2.7569,-2.7685,-2.7577,-2.7582,-2.7585,-2.7829,-2.7834,-2.7838,0,0,0,0,0,0,-2.7434,-2.7446,-2.7543,-2.7495,-2.7506,-2.7501,-2.7532,-2.7529,-2.7547,-2.7548,-2.7546,-2.7531,-2.7553,-2.7562,-2.7634,-2.7686,-2.7584,-2.7589,-2.7825,-2.783,-2.7836,-2.7919,0,0,0,0,0,0,-2.743,-2.7445,-2.7483,-2.7496,-2.7509,-2.7608,-2.7535,-2.7533,-2.7555,-2.7548,-2.7565,-2.7565,-2.7551,-2.7627,-2.7639,-2.7691,-2.7593,-2.782,-2.7827,-2.7834,-2.7911,-2.7926,-2.7939,0,0,0,0,0,-2.7425,-2.7504,-2.7485,-2.7497,-2.7555,-2.7611,-2.7618,-2.76,-2.756,-2.7597,-2.7598,-2.7565,-2.7678,-2.7635,-2.7648,-2.7702,-2.7817,-2.7825,-2.7833,-2.7905,-2.7923,-2.7939,0,0,0,0,0,0,-2.7498,-2.7506,-2.7484,-2.757,-2.759,-2.76,-2.7646,-2.762,-2.7652,-2.7644,-2.7621,-2.7625,-2.7703,-2.7709,-2.7661,-2.7798,-2.7741,-2.7752,-2.7791,-2.7808,-2.7822,-2.7819,-2.7597,0,0,0,0,0,-2.7523,-2.7568,-2.7573,-2.7648,-2.7659,-2.7651,-2.7675,-2.7659,-2.7679,-2.7688,-2.7694,-2.7715,-2.7755,-2.7782,-2.7819,-2.7912,-2.7915,-2.7956,-2.797,-2.7981,-2.7991,-2.8041,-2.8059,-2.7865,-2.7865,-2.7865,0,0,-2.7577,-2.7587,-2.7617,-2.7663,-2.7676,-2.7723,-2.7659,-2.7711,-2.7745,-2.7695,-2.7764,-2.7769,-2.7791,-2.7874,-2.7911,-2.7882,-2.8046,-2.7992,-2.8001,-2.8005,-2.8051,-2.807,-2.8086,-2.787,-2.7869,-2.7868,0,0,-2.77,-2.7712,-2.7776,-2.7791,-2.7812,-2.7807,-2.7822,-2.7836,-2.7838,-2.7906,-2.787,-2.791,-2.798,-2.7997,-2.8015,-2.8144,-2.8114,-2.8157,-2.823,-2.8279,-2.8294,-2.8308,-2.8354,-2.837,-2.8167,-2.8167,-2.8167,0,-2.7764,-2.7833,-2.7812,-2.7867,-2.7888,-2.7845,-2.791,-2.7925,-2.7958,-2.7974,-2.7941,-2.8029,-2.804,-2.8126,-2.8158,-2.8174,-2.8191,-2.8155,-2.8293,-2.8307,-2.8319,-2.8363,-2.838,-2.8172,-2.8171,-2.8171,-2.817,0,-2.7911,-2.7959,-2.8008,-2.8041,-2.8068,-2.8127,-2.8116,-2.8145,-2.8128,-2.8126,-2.8196,-2.8208,-2.8247,-2.8266,-2.825,-2.8351,-2.8332,-2.8297,-2.8239,-2.8343,-2.8384,-2.84,-2.8179,-2.8177,-2.8176,-2.8175,0,0,-2.808,-2.81,-2.8119,-2.8133,-2.8154,-2.8191,-2.8248,-2.8286,-2.8312,-2.8337,-2.8384,-2.8445,-2.8412,-2.8433,-2.8418,-2.846,-2.8562,-2.842,-2.842,-2.8446,-2.8674,-2.8701,-2.872,-2.8542,-2.8546,-2.8548,-2.8672,0,-2.8202,-2.8301,-2.8284,-2.8381,-2.8425,-2.8385,-2.8435,-2.8454,-2.8453,-2.8491,-2.849,-2.8533,-2.8487,-2.8499,-2.854,-2.8541,-2.8607,-2.8532,-2.8587,-2.8589,-2.8583,-2.8741,-2.8769,-2.8886,-2.8688,-2.8691,-2.8693,0,-2.8357,-2.8387,-2.8488,-2.8502,-2.852,-2.8565,-2.8599,-2.8635,-2.8655,-2.8652,-2.8675,-2.8652,-2.871,-2.8651,-2.873,-2.8679,-2.87,-2.8705,-2.8709,-2.8713,-2.8647,-2.875,-2.8923,-2.894,-2.8717,-2.8715,-2.8714,0,-2.847,-2.8536,-2.8605,-2.8618,-2.8636,-2.8669,-2.8678,-2.8695,-2.8719,-2.8748,-2.8764,-2.88,-2.8819,-2.8848,-2.8835,-2.8793,-2.8917,-2.8857,-2.8916,-2.8917,-2.8944,-2.8942,-2.9122,-2.8958,-2.8958,-2.8957,-2.8957,0,-2.8608,-2.8672,-2.8656,-2.8698,-2.8768,-2.8748,-2.8818,-2.8822,-2.8837,-2.888,-2.8848,-2.8888,-2.8869,-2.8909,-2.8899,-2.8966,-2.8976,-2.8975,-2.8971,-2.8978,-2.8978,-2.8991,-2.8983,-2.8962,-2.8961,-2.896,-2.8959,0,-2.8747,-2.8738,-2.8811,-2.8822,-2.8826,-2.8877,-2.8887,-2.8927,-2.8924,-2.8978,-2.899,-2.8985,-2.903,-2.902,-2.907,-2.9063,-2.9148,-2.9134,-2.9141,-2.9138,-2.9198,-2.9192,-2.9393,-2.9418,-2.9237,-2.9239,-2.924,0,-2.8835,-2.8883,-2.8899,-2.8925,-2.8937,-2.898,-2.9004,-2.8986,-2.9013,-2.9039,-2.9076,-2.9118,-2.9151,-2.9224,-2.9226,-2.9263,-2.925,-2.9318,-2.9256,-2.9261,-2.9251,-2.9249,-2.9254,-2.9331,-2.9333,-2.9334,-2.9336,0,-2.8993,-2.8987,-2.9023,-2.9059,-2.9088,-2.9115,-2.9139,-2.9162,-2.9147,-2.9178,-2.9224,-2.9249,-2.9299,-2.9341,-2.9376,-2.9385,-2.9358,-2.9355,-2.9371,-2.9378,-2.938,-2.938,-2.9175,-2.9351,-2.9349,-2.9348,-2.9347,-2.9347,-2.9109,-2.915,-2.9168,-2.9209,-2.9225,-2.9249,-2.9286,-2.9288,-2.9326,-2.9365,-2.9352,-2.9404,-2.9423,-2.9467,-2.9481,-2.9521,-2.9496,-2.9518,-2.9524,-2.953,-2.9537,-2.9373,-2.9527,-2.9527,-2.9526,-2.9526,-2.9526,0,-2.9266,-2.9275,-2.9314,-2.9348,-2.9381,-2.9352,-2.9377,-2.9407,-2.9453,-2.9472,-2.9505,-2.9557,-2.9598,-2.9603,-2.9641,-2.9673,-2.9661,-2.9683,-2.9681,-2.9684,-2.9558,-2.954,-2.9692,-2.9692,-2.9692,-2.9692,-2.9692,-2.9692,-2.9351,-2.9418,-2.9414,-2.9489,-2.9498,-2.9549,-2.9565,-2.9587,-2.9602,-2.9662,-2.9696,-2.9698,-2.9712,-2.9752,-2.9788,-2.9788,-2.9804,-2.9831,-2.9827,-2.9709,-2.9692,-2.9677,-2.966,-2.9834,-2.9835,-2.9949,-2.995,-2.9951]},{"header":{"parameterUnit":"m.s-1","parameterCategory":1,"la1":30.2991,"la2":30.254,"lo1":-89.0895,"lo2":-89.0444,"dy":0.0017,"dx":0.0017,"nx":28,"ny":28,"refTime":"2023-09-02T03:00:00:Z","depth":0,"parameterNumber":3,"parameterNumberName":"V-component_of_WINDS"},"data":[0,0,0,0,0,0,0,0,0,0,0,0,0,0,0,0,0,0,0,0,0,0,0,0,0,0,0,0,0,0,0,0,0,0,0,0,0,0,0,0,0,0,0,0,0,0,0,0,0,0,0,0,0,0,0,0,0,0,-3.2375,-3.2376,0,-3.2456,-3.2457,-3.2457,-3.2452,-3.2451,-3.2449,-3.2448,-3.2529,-3.2532,-3.2535,0,0,0,0,0,0,0,0,0,0,0,0,0,-3.2213,-3.2216,-3.2375,-3.2376,-3.2377,-3.2456,-3.2457,-3.2458,-3.2452,-3.2451,-3.2449,-3.2448,-3.2528,-3.2532,-3.2536,0,0,0,0,0,0,0,0,0,0,0,0,0,-3.2287,-3.2217,-3.2375,-3.2384,-3.2385,-3.2455,-3.2457,-3.2458,-3.2452,-3.2451,-3.2449,-3.2447,-3.2527,-3.2531,-3.2536,-3.2602,0,0,-3.2551,-3.2553,0,0,0,0,0,0,0,0,-3.2283,-3.2293,-3.2381,-3.2383,-3.2385,-3.2442,-3.2429,-3.2506,-3.2453,-3.2427,-3.2448,-3.2446,-3.2501,-3.2508,-3.2527,-3.2606,-3.2609,-3.2552,-3.2555,-3.2557,-3.2558,0,0,0,0,0,0,0,-3.2278,-3.229,-3.2407,-3.2383,-3.2385,-3.2383,-3.2391,-3.2444,-3.2473,-3.2429,-3.2429,-3.2438,-3.2502,-3.2523,-3.2529,-3.2611,-3.2552,-3.2556,-3.2559,-3.2561,-3.2746,-3.2747,0,0,0,0,0,0,-3.2271,-3.2286,-3.2404,-3.2409,-3.2329,-3.2387,-3.2397,-3.2425,-3.2472,-3.2478,-3.244,-3.2438,-3.2515,-3.2523,-3.2532,-3.2611,-3.2557,-3.2561,-3.2564,-3.2744,-3.2746,-3.2748,0,0,0,0,0,0,-3.2268,-3.2282,-3.2401,-3.2347,-3.2362,-3.2392,-3.2424,-3.2428,-3.2448,-3.2481,-3.2486,-3.2456,-3.2514,-3.2525,-3.2584,-3.2614,-3.2563,-3.2568,-3.2741,-3.2744,-3.2747,-3.2771,0,0,0,0,0,0,-3.2263,-3.2281,-3.2307,-3.2348,-3.2365,-3.2453,-3.2426,-3.2431,-3.2457,-3.2455,-3.2497,-3.2502,-3.2513,-3.2577,-3.2589,-3.262,-3.2572,-3.2739,-3.2743,-3.2746,-3.2767,-3.2774,-3.278,0,0,0,0,0,-3.2257,-3.231,-3.2308,-3.2323,-3.2399,-3.2455,-3.2465,-3.2477,-3.246,-3.2485,-3.2506,-3.2501,-3.2609,-3.2583,-3.2597,-3.2629,-3.2737,-3.2742,-3.2746,-3.2765,-3.2773,-3.278,0,0,0,0,0,0,-3.2271,-3.2316,-3.2314,-3.2382,-3.2415,-3.2454,-3.2487,-3.2486,-3.2524,-3.252,-3.2534,-3.2543,-3.2603,-3.2622,-3.2593,-3.2694,-3.267,-3.2678,-3.268,-3.2688,-3.2694,-3.2688,-3.2576,0,0,0,0,0,-3.2282,-3.2325,-3.2361,-3.2418,-3.2434,-3.2458,-3.2483,-3.249,-3.2524,-3.2537,-3.2562,-3.2595,-3.2636,-3.2663,-3.2703,-3.277,-3.2778,-3.2799,-3.2805,-3.281,-3.2816,-3.2851,-3.286,-3.2763,-3.2763,-3.2763,0,0,-3.2305,-3.2335,-3.2361,-3.2421,-3.2447,-3.249,-3.247,-3.2516,-3.2548,-3.2544,-3.2602,-3.2621,-3.2659,-3.2722,-3.2751,-3.274,-3.2845,-3.2815,-3.2819,-3.2823,-3.2857,-3.2866,-3.2874,-3.2766,-3.2765,-3.2765,0,0,-3.2369,-3.2397,-3.2446,-3.2472,-3.2512,-3.2527,-3.2539,-3.2579,-3.2591,-3.2649,-3.2647,-3.2685,-3.2756,-3.2782,-3.2805,-3.2877,-3.2873,-3.2889,-3.2922,-3.2956,-3.2964,-3.2971,-3.2995,-3.3004,-3.2895,-3.2895,-3.2896,0,-3.2393,-3.2458,-3.2471,-3.2518,-3.2544,-3.2543,-3.2592,-3.2617,-3.2668,-3.2685,-3.2672,-3.276,-3.2785,-3.2854,-3.2871,-3.289,-3.2903,-3.2885,-3.2962,-3.2969,-3.2975,-3.2999,-3.3008,-3.2897,-3.2897,-3.2897,-3.2897,0,-3.2485,-3.253,-3.2565,-3.2614,-3.2643,-3.2691,-3.271,-3.2738,-3.2742,-3.2758,-3.2817,-3.2847,-3.2892,-3.2909,-3.2913,-3.2978,-3.2969,-3.2959,-3.2935,-3.2986,-3.3008,-3.3018,-3.29,-3.2899,-3.2898,-3.2898,0,0,-3.256,-3.2615,-3.2628,-3.2649,-3.2693,-3.2727,-3.2774,-3.2819,-3.2842,-3.2877,-3.2916,-3.2975,-3.2965,-3.2991,-3.2998,-3.3028,-3.3082,-3.3014,-3.3015,-3.3025,-3.3154,-3.3161,-3.3171,-3.308,-3.3082,-3.3083,-3.315,0,-3.2628,-3.2712,-3.2724,-3.2798,-3.2839,-3.2838,-3.2879,-3.2909,-3.2925,-3.2961,-3.2979,-3.302,-3.3005,-3.302,-3.305,-3.3069,-3.3108,-3.3065,-3.3115,-3.3117,-3.3106,-3.3183,-3.3192,-3.3254,-3.3159,-3.3161,-3.3162,0,-3.2718,-3.2755,-3.2833,-3.287,-3.2887,-3.2924,-3.2965,-3.3,-3.3034,-3.3043,-3.3071,-3.3074,-3.3122,-3.3096,-3.316,-3.3131,-3.3152,-3.3164,-3.3167,-3.3172,-3.3142,-3.3189,-3.3274,-3.3283,-3.3176,-3.3175,-3.3174,0,-3.2764,-3.2834,-3.2889,-3.2908,-3.2952,-3.2977,-3.2997,-3.3029,-3.3054,-3.309,-3.3106,-3.3147,-3.3169,-3.32,-3.3213,-3.3193,-3.3276,-3.3252,-3.3285,-3.3284,-3.3302,-3.3301,-3.339,-3.3317,-3.3317,-3.3316,-3.3316,0,-3.2838,-3.2886,-3.291,-3.2944,-3.2996,-3.3009,-3.3061,-3.3079,-3.3107,-3.3144,-3.3146,-3.318,-3.3196,-3.3232,-3.3242,-3.3294,-3.3304,-3.3312,-3.3314,-3.3312,-3.331,-3.3325,-3.3321,-3.3319,-3.3318,-3.3318,-3.3317,0,-3.2899,-3.2917,-3.2977,-3.3014,-3.3024,-3.3061,-3.3092,-3.3124,-3.3139,-3.3185,-3.3197,-3.3221,-3.3263,-3.328,-3.3332,-3.3339,-3.3398,-3.3397,-3.3386,-3.3387,-3.3418,-3.3415,-3.352,-3.3534,-3.3452,-3.3453,-3.3454,0,-3.2944,-3.2981,-3.3021,-3.3046,-3.3066,-3.3106,-3.3132,-3.3146,-3.3173,-3.3213,-3.324,-3.3283,-3.3317,-3.3385,-3.3407,-3.3446,-3.3446,-3.348,-3.3451,-3.3447,-3.3445,-3.3442,-3.3445,-3.3485,-3.3486,-3.3486,-3.3487,0,-3.3023,-3.303,-3.3068,-3.3108,-3.3139,-3.3172,-3.3203,-3.3223,-3.3241,-3.3271,-3.3315,-3.3342,-3.3395,-3.3436,-3.3477,-3.3496,-3.3494,-3.3495,-3.3505,-3.3502,-3.3495,-3.3498,-3.34,-3.3493,-3.3492,-3.3492,-3.3492,-3.3491,-3.3077,-3.3109,-3.3142,-3.3183,-3.3208,-3.3238,-3.3269,-3.3288,-3.3325,-3.3369,-3.3375,-3.3422,-3.3453,-3.3507,-3.3528,-3.3563,-3.3554,-3.3568,-3.3572,-3.3575,-3.3577,-3.3489,-3.3571,-3.3571,-3.3571,-3.3571,-3.357,0,-3.3155,-3.3176,-3.3214,-3.3258,-3.329,-3.3286,-3.3321,-3.3347,-3.3389,-3.3418,-3.3452,-3.3502,-3.3542,-3.3566,-3.3606,-3.363,-3.363,-3.364,-3.3638,-3.3642,-3.3583,-3.357,-3.3639,-3.3639,-3.3639,-3.3639,-3.3639,-3.3639,-3.32,-3.3253,-3.3263,-3.3328,-3.3349,-3.3395,-3.3414,-3.3441,-3.3464,-3.352,-3.3553,-3.3569,-3.3596,-3.3638,-3.3674,-3.368,-3.3694,-3.3705,-3.371,-3.3654,-3.3647,-3.364,-3.3628,-3.3708,-3.3708,-3.3766,-3.3767,-3.3767]}]]